[[{"header":{"parameterUnit":"m.s-1","parameterCategory":1,"la1":30.2991,"la2":30.254,"lo1":-89.0895,"lo2":-89.0444,"dy":0.0017,"dx":0.0017,"nx":28,"ny":28,"refTime":"2023-09-30T03:00:00:Z","depth":0,"parameterNumber":2,"parameterNumberName":"U-component_of_WINDS"},"data":[0,0,0,0,0,0,0,0,0,0,0,0,0,0,0,0,0,0,0,0,0,0,0,0,0,0,0,0,0,0,0,0,0,0,0,0,0,0,0,0,0,0,0,0,0,0,0,0,0,0,0,0,0,0,0,0,0,0,-4.5443,-4.5443,0,-4.5503,-4.5504,-4.5505,-4.5342,-4.5337,-4.5332,-4.5327,-4.5394,-4.5401,-4.5407,0,0,0,0,0,0,0,0,0,0,0,0,0,-4.519,-4.5195,-4.5443,-4.5443,-4.5444,-4.5503,-4.5504,-4.5505,-4.5343,-4.5337,-4.5331,-4.5325,-4.5392,-4.54,-4.5408,0,0,0,0,0,0,0,0,0,0,0,0,0,-4.528,-4.5197,-4.5443,-4.5371,-4.5365,-4.5503,-4.5504,-4.5505,-4.5345,-4.5337,-4.5329,-4.5322,-4.539,-4.5399,-4.5409,-4.5621,0,0,-4.5438,-4.5443,0,0,0,0,0,0,0,0,-4.5275,-4.529,-4.538,-4.5376,-4.5369,-4.5407,-4.5439,-4.5544,-4.5346,-4.5352,-4.5327,-4.5319,-4.5405,-4.5413,-4.5441,-4.5624,-4.5627,-4.5439,-4.5445,-4.5449,-4.5452,0,0,0,0,0,0,0,-4.5269,-4.5286,-4.5467,-4.5382,-4.5375,-4.5336,-4.5341,-4.5458,-4.5421,-4.5351,-4.534,-4.5349,-4.5401,-4.5432,-4.5442,-4.5628,-4.5439,-4.5448,-4.5454,-4.5458,-4.5988,-4.5996,0,0,0,0,0,0,-4.5272,-4.5282,-4.5465,-4.5469,-4.5303,-4.5347,-4.5352,-4.5403,-4.5419,-4.5414,-4.5355,-4.5341,-4.5419,-4.543,-4.5443,-4.5693,-4.5449,-4.5458,-4.5464,-4.598,-4.599,-4.5999,0,0,0,0,0,0,-4.5267,-4.529,-4.5462,-4.5372,-4.5391,-4.5359,-4.5418,-4.5408,-4.544,-4.5422,-4.5415,-4.5394,-4.5414,-4.543,-4.5578,-4.5694,-4.5463,-4.5472,-4.597,-4.5983,-4.5995,-4.6196,0,0,0,0,0,0,-4.526,-4.5289,-4.5369,-4.5375,-4.5397,-4.5596,-4.5425,-4.5415,-4.5456,-4.5438,-4.5457,-4.5453,-4.5409,-4.5564,-4.5588,-4.5703,-4.5479,-4.596,-4.5976,-4.5991,-4.6179,-4.6213,-4.6243,0,0,0,0,0,-4.5252,-4.5424,-4.5374,-4.5397,-4.5495,-4.5602,-4.5615,-4.556,-4.5466,-4.5547,-4.5535,-4.5452,-4.5677,-4.5581,-4.5606,-4.5726,-4.5952,-4.5972,-4.5989,-4.6164,-4.6207,-4.6242,0,0,0,0,0,0,-4.5434,-4.5423,-4.5368,-4.5546,-4.5576,-4.5575,-4.5674,-4.5607,-4.5665,-4.5646,-4.5577,-4.5582,-4.5744,-4.5749,-4.5642,-4.5932,-4.5799,-4.5823,-4.5923,-4.5963,-4.5995,-4.5991,-4.5487,0,0,0,0,0,-4.5494,-4.5581,-4.5567,-4.5726,-4.5744,-4.5707,-4.5752,-4.5707,-4.5736,-4.5748,-4.5747,-4.578,-4.5857,-4.591,-4.5981,-4.6178,-4.618,-4.6273,-4.6305,-4.6331,-4.6354,-4.6459,-4.6501,-4.606,-4.606,-4.6059,0,0,-4.5621,-4.5626,-4.5685,-4.5763,-4.5781,-4.5873,-4.5719,-4.5823,-4.5891,-4.5764,-4.5904,-4.5905,-4.5936,-4.611,-4.6186,-4.6119,-4.6476,-4.6355,-4.6377,-4.6385,-4.6483,-4.6525,-4.6562,-4.6073,-4.607,-4.6068,0,0,-4.5899,-4.5911,-4.6045,-4.6065,-4.6094,-4.6068,-4.61,-4.6109,-4.6104,-4.6243,-4.6149,-4.6229,-4.6365,-4.6391,-4.6422,-4.6709,-4.6636,-4.6734,-4.6904,-4.7007,-4.7042,-4.7072,-4.7176,-4.7214,-4.6756,-4.6757,-4.6757,0,-4.6053,-4.6187,-4.6122,-4.6233,-4.6271,-4.6157,-4.6293,-4.6317,-4.6368,-4.6397,-4.632,-4.6488,-4.6501,-4.6679,-4.6749,-4.6778,-4.6814,-4.6733,-4.7042,-4.7072,-4.7099,-4.7197,-4.7236,-4.6769,-4.6768,-4.6766,-4.6765,0,-4.6376,-4.647,-4.6575,-4.6626,-4.6674,-4.6798,-4.6753,-4.681,-4.6761,-4.6744,-4.6887,-4.6898,-4.6969,-4.7008,-4.6961,-4.718,-4.7138,-4.7053,-4.6918,-4.7154,-4.7245,-4.7282,-4.6786,-4.6782,-4.6778,-4.6775,0,0,-4.6771,-4.6783,-4.6823,-4.6845,-4.6867,-4.694,-4.7058,-4.7125,-4.7177,-4.7215,-4.7313,-4.743,-4.7351,-4.7387,-4.7342,-4.7433,-4.7661,-4.7336,-4.7336,-4.7397,-4.7904,-4.7969,-4.8013,-4.7611,-4.7617,-4.7623,-4.7902,0,-4.7046,-4.7247,-4.7192,-4.7393,-4.748,-4.7374,-4.7476,-4.7502,-4.7489,-4.7562,-4.7547,-4.7631,-4.752,-4.7541,-4.7626,-4.7615,-4.7762,-4.7594,-4.7703,-4.7708,-4.77,-4.806,-4.8129,-4.8392,-4.7937,-4.7943,-4.7947,0,-4.7394,-4.7445,-4.7655,-4.7662,-4.7697,-4.779,-4.7848,-4.7918,-4.7945,-4.7929,-4.7969,-4.7905,-4.8023,-4.7886,-4.8047,-4.7934,-4.7975,-4.7977,-4.7985,-4.7995,-4.7843,-4.8081,-4.8474,-4.8514,-4.8002,-4.7998,-4.7994,0,-4.7663,-4.7784,-4.7925,-4.7946,-4.7959,-4.8027,-4.8036,-4.8055,-4.8099,-4.815,-4.8178,-4.8243,-4.8279,-4.8331,-4.8287,-4.8191,-4.8456,-4.8315,-4.8447,-4.8449,-4.8509,-4.8506,-4.8916,-4.8534,-4.8533,-4.8533,-4.8532,0,-4.7977,-4.811,-4.8046,-4.8133,-4.8278,-4.8214,-4.8361,-4.8357,-4.8375,-4.8461,-4.8372,-4.8455,-4.8391,-4.8468,-4.8435,-4.8574,-4.859,-4.8582,-4.8572,-4.8591,-4.8592,-4.8618,-4.8599,-4.8543,-4.8541,-4.8539,-4.8537,0,-4.8303,-4.8265,-4.8412,-4.8411,-4.8414,-4.8522,-4.8521,-4.8602,-4.8582,-4.8691,-4.8713,-4.8682,-4.8768,-4.8729,-4.882,-4.8797,-4.8976,-4.8941,-4.8967,-4.8959,-4.9094,-4.9082,-4.9535,-4.9592,-4.9173,-4.9177,-4.918,0,-4.8506,-4.8605,-4.8615,-4.8665,-4.8679,-4.8761,-4.8805,-4.8746,-4.8796,-4.8834,-4.8911,-4.8989,-4.9048,-4.9191,-4.9177,-4.9246,-4.9213,-4.9367,-4.9223,-4.9239,-4.9217,-4.9212,-4.9222,-4.9397,-4.9402,-4.9406,-4.9409,0,-4.8871,-4.8847,-4.8913,-4.8974,-4.9029,-4.9074,-4.9112,-4.9158,-4.91,-4.9161,-4.9247,-4.9293,-4.9385,-4.9464,-4.9524,-4.9534,-4.9464,-4.9454,-4.9488,-4.951,-4.9521,-4.9518,-4.9048,-4.9444,-4.9441,-4.9438,-4.9436,-4.9435,-4.9142,-4.9226,-4.9245,-4.9322,-4.9344,-4.9381,-4.9457,-4.9446,-4.9516,-4.9585,-4.9546,-4.9647,-4.9671,-4.9745,-4.9765,-4.9844,-4.9783,-4.9833,-4.9846,-4.9859,-4.9878,-4.9507,-4.9854,-4.9853,-4.9852,-4.9851,-4.9851,0,-4.9503,-4.951,-4.9582,-4.9637,-4.9698,-4.9623,-4.966,-4.9717,-4.9807,-4.9835,-4.9894,-4.9994,-5.007,-5.0062,-5.0132,-5.0197,-5.0167,-5.0218,-5.0213,-5.0217,-4.9927,-4.9891,-5.0242,-5.0242,-5.0241,-5.0241,-5.0241,-5.0241,-4.9699,-4.9836,-4.9815,-4.9962,-4.9968,-5.0065,-5.0094,-5.0128,-5.015,-5.0264,-5.0326,-5.032,-5.0334,-5.0404,-5.0471,-5.0467,-5.0498,-5.0562,-5.0546,-5.0276,-5.0237,-5.02,-5.0166,-5.0569,-5.0569,-5.0829,-5.0831,-5.0833]},{"header":{"parameterUnit":"m.s-1","parameterCategory":1,"la1":30.2991,"la2":30.254,"lo1":-89.0895,"lo2":-89.0444,"dy":0.0017,"dx":0.0017,"nx":28,"ny":28,"refTime":"2023-09-30T03:00:00:Z","depth":0,"parameterNumber":3,"parameterNumberName":"V-component_of_WINDS"},"data":[0,0,0,0,0,0,0,0,0,0,0,0,0,0,0,0,0,0,0,0,0,0,0,0,0,0,0,0,0,0,0,0,0,0,0,0,0,0,0,0,0,0,0,0,0,0,0,0,0,0,0,0,0,0,0,0,0,0,-2.5585,-2.5585,0,-2.559,-2.559,-2.559,-2.5559,-2.5558,-2.5557,-2.5556,-2.5561,-2.5562,-2.5563,0,0,0,0,0,0,0,0,0,0,0,0,0,-2.5545,-2.5546,-2.5585,-2.5585,-2.5585,-2.559,-2.559,-2.559,-2.5559,-2.5558,-2.5557,-2.5556,-2.5561,-2.5562,-2.5563,0,0,0,0,0,0,0,0,0,0,0,0,0,-2.5558,-2.5546,-2.5585,-2.557,-2.5569,-2.559,-2.559,-2.5591,-2.5559,-2.5558,-2.5556,-2.5555,-2.556,-2.5562,-2.5563,-2.5599,0,0,-2.5568,-2.5568,0,0,0,0,0,0,0,0,-2.5557,-2.5559,-2.5572,-2.5571,-2.557,-2.5572,-2.5578,-2.5593,-2.556,-2.5563,-2.5556,-2.5555,-2.5566,-2.5567,-2.5571,-2.56,-2.56,-2.5568,-2.5569,-2.5569,-2.557,0,0,0,0,0,0,0,-2.5556,-2.5559,-2.5587,-2.5572,-2.5571,-2.5562,-2.5563,-2.5581,-2.5572,-2.5562,-2.556,-2.5561,-2.5565,-2.5569,-2.5571,-2.56,-2.5568,-2.5569,-2.557,-2.5571,-2.5656,-2.5657,0,0,0,0,0,0,-2.5558,-2.5558,-2.5587,-2.5587,-2.556,-2.5564,-2.5564,-2.5573,-2.5572,-2.557,-2.5562,-2.556,-2.5568,-2.5569,-2.5571,-2.5611,-2.5569,-2.5571,-2.5571,-2.5654,-2.5656,-2.5658,0,0,0,0,0,0,-2.5557,-2.556,-2.5587,-2.5572,-2.5575,-2.5566,-2.5576,-2.5574,-2.5578,-2.5572,-2.557,-2.5569,-2.5567,-2.5569,-2.5592,-2.5611,-2.5571,-2.5573,-2.5653,-2.5655,-2.5657,-2.5693,0,0,0,0,0,0,-2.5556,-2.556,-2.5575,-2.5573,-2.5576,-2.5608,-2.5577,-2.5575,-2.5581,-2.5577,-2.5577,-2.5576,-2.5566,-2.559,-2.5593,-2.5612,-2.5574,-2.5651,-2.5654,-2.5656,-2.569,-2.5696,-2.5701,0,0,0,0,0,-2.5555,-2.5585,-2.5575,-2.5579,-2.5593,-2.561,-2.5611,-2.5599,-2.5583,-2.5596,-2.5592,-2.5576,-2.5608,-2.5593,-2.5596,-2.5616,-2.565,-2.5653,-2.5656,-2.5688,-2.5695,-2.5701,0,0,0,0,0,0,-2.559,-2.5585,-2.5574,-2.5605,-2.5608,-2.5604,-2.5621,-2.5608,-2.5616,-2.5612,-2.5597,-2.5597,-2.5622,-2.5622,-2.5604,-2.5649,-2.5626,-2.563,-2.5649,-2.5656,-2.5661,-2.566,-2.5575,0,0,0,0,0,-2.5601,-2.5615,-2.561,-2.5637,-2.5639,-2.563,-2.5637,-2.5627,-2.563,-2.5631,-2.5628,-2.5631,-2.5641,-2.5649,-2.5658,-2.569,-2.5689,-2.5705,-2.5711,-2.5715,-2.5719,-2.5733,-2.574,-2.5668,-2.5668,-2.5668,0,0,-2.5625,-2.5624,-2.5633,-2.5644,-2.5646,-2.5659,-2.5632,-2.5648,-2.5658,-2.5633,-2.5654,-2.5653,-2.5654,-2.5681,-2.5693,-2.5681,-2.5738,-2.5719,-2.5723,-2.5724,-2.5737,-2.5744,-2.575,-2.567,-2.567,-2.5669,0,0,-2.5674,-2.5676,-2.5698,-2.5699,-2.5701,-2.5695,-2.57,-2.5698,-2.5696,-2.5717,-2.5698,-2.5709,-2.5729,-2.573,-2.5733,-2.5782,-2.5766,-2.5785,-2.5814,-2.5828,-2.5834,-2.5839,-2.5854,-2.586,-2.5789,-2.5789,-2.5789,0,-2.5703,-2.5724,-2.5711,-2.5728,-2.5733,-2.5711,-2.5732,-2.5734,-2.5739,-2.5743,-2.5729,-2.5752,-2.5752,-2.5778,-2.5789,-2.5793,-2.5798,-2.5785,-2.5834,-2.5839,-2.5844,-2.5858,-2.5864,-2.5791,-2.5791,-2.579,-2.579,0,-2.5758,-2.5773,-2.5791,-2.5795,-2.5802,-2.5821,-2.581,-2.5818,-2.5808,-2.5802,-2.5823,-2.5822,-2.583,-2.5836,-2.5826,-2.586,-2.5852,-2.5837,-2.5813,-2.5853,-2.5866,-2.5872,-2.5794,-2.5793,-2.5793,-2.5792,0,0,-2.5831,-2.5827,-2.5834,-2.5834,-2.5834,-2.5845,-2.5862,-2.587,-2.5876,-2.588,-2.5894,-2.591,-2.5895,-2.5899,-2.5889,-2.5902,-2.5938,-2.5885,-2.5884,-2.5893,-2.5973,-2.5983,-2.599,-2.5928,-2.5929,-2.593,-2.5972,0,-2.5878,-2.5908,-2.5896,-2.5926,-2.5938,-2.5917,-2.5932,-2.5933,-2.5928,-2.5937,-2.5931,-2.5942,-2.5923,-2.5925,-2.5937,-2.5931,-2.5953,-2.5928,-2.5939,-2.594,-2.5938,-2.5997,-2.6009,-2.6048,-2.5977,-2.5978,-2.5979,0,-2.5937,-2.5942,-2.5974,-2.597,-2.5974,-2.5988,-2.5993,-2.6002,-2.6002,-2.5998,-2.6001,-2.5988,-2.6004,-2.5981,-2.6001,-2.5984,-2.5988,-2.5986,-2.5987,-2.5987,-2.5961,-2.5997,-2.6061,-2.6066,-2.5987,-2.5987,-2.5986,0,-2.5984,-2.6,-2.602,-2.6022,-2.6018,-2.6027,-2.6026,-2.6025,-2.6029,-2.6034,-2.6036,-2.6043,-2.6046,-2.6051,-2.6039,-2.6024,-2.6061,-2.6037,-2.6056,-2.6056,-2.6064,-2.6063,-2.6128,-2.6069,-2.6069,-2.6069,-2.6069,0,-2.6037,-2.6057,-2.6041,-2.6053,-2.6074,-2.6059,-2.608,-2.6077,-2.6075,-2.6086,-2.6068,-2.6079,-2.6063,-2.6072,-2.6063,-2.608,-2.6082,-2.6078,-2.6075,-2.6079,-2.6079,-2.608,-2.6076,-2.607,-2.607,-2.607,-2.6069,0,-2.6094,-2.6084,-2.6104,-2.6098,-2.6097,-2.6112,-2.6107,-2.6117,-2.6111,-2.6124,-2.6126,-2.6116,-2.6125,-2.6114,-2.6122,-2.6116,-2.6139,-2.6133,-2.6139,-2.6136,-2.6155,-2.6153,-2.6221,-2.6229,-2.6167,-2.6167,-2.6168,0,-2.6127,-2.6142,-2.6137,-2.6142,-2.6142,-2.6151,-2.6156,-2.6142,-2.6147,-2.6147,-2.6157,-2.6164,-2.6169,-2.6184,-2.6177,-2.6182,-2.6175,-2.6199,-2.6176,-2.6178,-2.6173,-2.6172,-2.6173,-2.6203,-2.6204,-2.6205,-2.6205,0,-2.6188,-2.6181,-2.6188,-2.6193,-2.6198,-2.6201,-2.6203,-2.6209,-2.6194,-2.62,-2.6209,-2.6213,-2.622,-2.6227,-2.623,-2.6228,-2.6214,-2.6212,-2.6217,-2.622,-2.6222,-2.6219,-2.615,-2.6211,-2.621,-2.621,-2.6209,-2.6209,-2.6232,-2.6243,-2.6241,-2.6248,-2.6248,-2.625,-2.6259,-2.6253,-2.6259,-2.6264,-2.6256,-2.6266,-2.6264,-2.6267,-2.6266,-2.6273,-2.6263,-2.627,-2.6271,-2.6273,-2.6275,-2.6222,-2.6274,-2.6274,-2.6274,-2.6274,-2.6274,0,-2.629,-2.6287,-2.6294,-2.6297,-2.6302,-2.6288,-2.6289,-2.6294,-2.6303,-2.6303,-2.6308,-2.6316,-2.6323,-2.6316,-2.632,-2.6327,-2.632,-2.6329,-2.6327,-2.6327,-2.6285,-2.628,-2.6334,-2.6334,-2.6334,-2.6334,-2.6334,-2.6334,-2.6321,-2.6338,-2.6331,-2.6347,-2.6344,-2.6353,-2.6355,-2.6356,-2.6355,-2.6365,-2.637,-2.6365,-2.6362,-2.6366,-2.637,-2.6368,-2.637,-2.638,-2.6375,-2.6336,-2.633,-2.6324,-2.6319,-2.6381,-2.6381,-2.6416,-2.6416,-2.6417]}]]